Hourly Weather Gogolevka

Today, 18 May, Tuesday

Time Temperature Precipitation Wind Pressure Humidity
00:00 +20°C° 0.1 mm 2 mps 740 mmHg 53%
01:00 +19°C° 0.1 mm 2 mps 740 mmHg 55%
02:00 +19°C° 0 mm 2 mps 740 mmHg 57%
03:00 +18°C° 0 mm 2 mps 739 mmHg 59%
04:00 +18°C° 0 mm 2 mps 739 mmHg 61%
05:00 +19°C° 0 mm 2 mps 739 mmHg 55%
06:00 +21°C° 0 mm 2 mps 739 mmHg 49%
07:00 +24°C° 0 mm 3 mps 739 mmHg 43%
08:00 +31°C° 0 mm 2 mps 738 mmHg 24%
09:00 +30°C° 0 mm 2 mps 738 mmHg 26%
10:00 +29°C° 0 mm 2 mps 739 mmHg 29%
11:00 +30°C° 0 mm 2 mps 739 mmHg 27%
12:00 +31°C° 0 mm 2 mps 738 mmHg 24%
13:00 +32°C° 0 mm 2 mps 738 mmHg 22%
14:00 +31°C° 0 mm 2 mps 738 mmHg 24%
15:00 +31°C° 0 mm 2 mps 737 mmHg 26%
16:00 +30°C° 0 mm 3 mps 737 mmHg 27%
17:00 +29°C° 0 mm 3 mps 737 mmHg 33%
18:00 +27°C° 0 mm 3 mps 737 mmHg 38%
19:00 +26°C° 0 mm 4 mps 737 mmHg 43%
20:00 +25°C° 0 mm 3 mps 737 mmHg 46%
21:00 +24°C° 0 mm 2 mps 737 mmHg 49%
22:00 +23°C° 0 mm 1 mps 737 mmHg 52%
23:00 +21°C° 0 mm 2 mps 737 mmHg 54%

Tomorrow, 19 May, Wednesday

Time Temperature Precipitation Wind Pressure Humidity
00:00 +20°C° 0 mm 3 mps 737 mmHg 57%
01:00 +20°C° 0 mm 4 mps 737 mmHg 60%
02:00 +19°C° 0 mm 5 mps 737 mmHg 65%
03:00 +17°C° 0 mm 6 mps 737 mmHg 70%
04:00 +16°C° 0 mm 7 mps 738 mmHg 75%
05:00 +16°C° 0 mm 7 mps 738 mmHg 74%
06:00 +16°C° 0 mm 8 mps 739 mmHg 74%
07:00 +16°C° 0 mm 8 mps 739 mmHg 73%
08:00 +18°C° 0 mm 8 mps 739 mmHg 66%
09:00 +20°C° 0 mm 8 mps 740 mmHg 59%
10:00 +21°C° 0 mm 8 mps 740 mmHg 51%
11:00 +22°C° 0 mm 8 mps 740 mmHg 47%
12:00 +23°C° 0 mm 8 mps 740 mmHg 42%
13:00 +24°C° 0 mm 8 mps 740 mmHg 38%
14:00 +23°C° 0 mm 7 mps 740 mmHg 37%
15:00 +23°C° 0 mm 7 mps 740 mmHg 36%
16:00 +23°C° 0 mm 7 mps 740 mmHg 36%
17:00 +22°C° 0 mm 7 mps 740 mmHg 37%
18:00 +22°C° 0 mm 6 mps 740 mmHg 38%
19:00 +21°C° 0 mm 5 mps 740 mmHg 39%
20:00 +20°C° 0 mm 5 mps 741 mmHg 40%
21:00 +18°C° 0 mm 4 mps 741 mmHg 42%
22:00 +17°C° 0 mm 4 mps 742 mmHg 43%
23:00 +15°C° 0 mm 4 mps 742 mmHg 46%

Day after tomorrow, 20 May, Thursday

Time Temperature Precipitation Wind Pressure Humidity
00:00 +14°C° 0 mm 4 mps 742 mmHg 48%
01:00 +13°C° 0 mm 3 mps 742 mmHg 50%
02:00 +13°C° 0 mm 4 mps 742 mmHg 52%
03:00 +12°C° 0 mm 4 mps 742 mmHg 54%
04:00 +12°C° 0 mm 4 mps 743 mmHg 56%
05:00 +13°C° 0 mm 4 mps 743 mmHg 53%
06:00 +15°C° 0 mm 5 mps 743 mmHg 50%
07:00 +16°C° 0 mm 5 mps 744 mmHg 46%
08:00 +19°C° 0 mm 5 mps 744 mmHg 42%
09:00 +20°C° 0 mm 5 mps 744 mmHg 37%
10:00 +21°C° 0 mm 5 mps 744 mmHg 32%
11:00 +22°C° 0 mm 5 mps 743 mmHg 30%
12:00 +23°C° 0 mm 5 mps 743 mmHg 28%
13:00 +25°C° 0 mm 5 mps 743 mmHg 26%
14:00 +25°C° 0 mm 5 mps 743 mmHg 25%
15:00 +26°C° 0 mm 5 mps 743 mmHg 25%
16:00 +26°C° 0 mm 5 mps 743 mmHg 24%
17:00 +25°C° 0 mm 5 mps 743 mmHg 28%
18:00 +23°C° 0 mm 4 mps 743 mmHg 31%
19:00 +22°C° 0 mm 3 mps 743 mmHg 35%
20:00 +20°C° 0 mm 3 mps 743 mmHg 38%
21:00 +18°C° 0 mm 3 mps 743 mmHg 41%
22:00 +17°C° 0 mm 3 mps 743 mmHg 44%
23:00 +16°C° 0 mm 3 mps 743 mmHg 46%

21 May, Friday

Time Temperature Precipitation Wind Pressure Humidity
00:00 +16°C° 0 mm 3 mps 743 mmHg 48%
01:00 +14°C° 0 mm 3 mps 743 mmHg 50%
02:00 +15°C° 0 mm 2 mps 743 mmHg 52%
03:00 +14°C° 0 mm 2 mps 743 mmHg 53%
04:00 +14°C° 0 mm 2 mps 743 mmHg 55%
05:00 +14°C° 0 mm 3 mps 744 mmHg 51%
06:00 +17°C° 0 mm 3 mps 744 mmHg 47%
07:00 +19°C° 0 mm 3 mps 744 mmHg 44%
08:00 +20°C° 0 mm 3 mps 744 mmHg 39%
09:00 +22°C° 0 mm 4 mps 744 mmHg 35%
10:00 +23°C° 0 mm 4 mps 744 mmHg 31%
11:00 +25°C° 0 mm 4 mps 744 mmHg 29%
12:00 +26°C° 0 mm 4 mps 744 mmHg 28%
13:00 +27°C° 0 mm 4 mps 744 mmHg 26%
14:00 +27°C° 0 mm 4 mps 744 mmHg 25%
15:00 +27°C° 0 mm 4 mps 744 mmHg 25%
16:00 +27°C° 0 mm 3 mps 744 mmHg 24%
17:00 +26°C° 0 mm 3 mps 744 mmHg 28%
18:00 +25°C° 0 mm 3 mps 744 mmHg 31%
19:00 +24°C° 0 mm 2 mps 744 mmHg 34%
20:00 +23°C° 0 mm 2 mps 744 mmHg 36%
21:00 +20°C° 0 mm 2 mps 744 mmHg 38%
22:00 +20°C° 0 mm 1 mps 744 mmHg 40%
23:00 +19°C° 0 mm 1 mps 744 mmHg 42%

22 May, Saturday

Time Temperature Precipitation Wind Pressure Humidity
00:00 +19°C° 0 mm 1 mps 744 mmHg 44%
01:00 +18°C° 0 mm 1 mps 744 mmHg 46%
02:00 +16°C° 0 mm 1 mps 744 mmHg 47%
03:00 +16°C° 0 mm 1 mps 745 mmHg 49%
04:00 +16°C° 0 mm 1 mps 745 mmHg 50%
05:00 +18°C° 0 mm 1 mps 745 mmHg 47%
06:00 +20°C° 0 mm 1 mps 745 mmHg 43%
07:00 +21°C° 0 mm 1 mps 746 mmHg 39%
08:00 +23°C° 0 mm 1 mps 746 mmHg 36%
09:00 +24°C° 0 mm 1 mps 746 mmHg 32%
10:00 +26°C° 0 mm 2 mps 745 mmHg 28%
11:00 +27°C° 0 mm 2 mps 745 mmHg 27%
12:00 +27°C° 0 mm 2 mps 745 mmHg 25%
13:00 +28°C° 0 mm 2 mps 745 mmHg 24%
14:00 +28°C° 0 mm 2 mps 745 mmHg 23%
15:00 +29°C° 0 mm 2 mps 745 mmHg 23%
16:00 +29°C° 0 mm 2 mps 744 mmHg 22%
17:00 +30°C° 0 mm 1 mps 742 mmHg 25%
18:00 +29°C° 0 mm 1 mps 742 mmHg 27%
19:00 +28°C° 0 mm 1 mps 742 mmHg 30%
20:00 +25°C° 0 mm 0 mps 742 mmHg 31%
21:00 +23°C° 0 mm 0 mps 742 mmHg 33%
22:00 +22°C° 0 mm 0 mps 742 mmHg 34%
23:00 +23°C° 0 mm 1 mps 742 mmHg 36%

23 May, Sunday

Time Temperature Precipitation Wind Pressure Humidity
00:00 +23°C° 0 mm 1 mps 741 mmHg 37%
01:00 +21°C° 0 mm 2 mps 741 mmHg 39%
02:00 +20°C° 0 mm 2 mps 741 mmHg 41%
03:00 +19°C° 0 mm 2 mps 742 mmHg 43%
04:00 +19°C° 0 mm 2 mps 742 mmHg 45%
05:00 +20°C° 0 mm 2 mps 742 mmHg 43%
06:00 +23°C° 0 mm 2 mps 742 mmHg 41%
07:00 +24°C° 0 mm 2 mps 742 mmHg 39%
08:00 +26°C° 0 mm 3 mps 742 mmHg 35%
09:00 +28°C° 0 mm 3 mps 742 mmHg 30%
10:00 +30°C° 0 mm 4 mps 742 mmHg 26%
11:00 +32°C° 0 mm 4 mps 742 mmHg 25%
12:00 +33°C° 0 mm 4 mps 742 mmHg 23%
13:00 +34°C° 0 mm 4 mps 741 mmHg 22%
14:00 +34°C° 0 mm 5 mps 741 mmHg 22%
15:00 +34°C° 0 mm 5 mps 741 mmHg 22%
16:00 +34°C° 0 mm 5 mps 741 mmHg 22%
17:00 +33°C° 0 mm 4 mps 741 mmHg 25%
18:00 +31°C° 0 mm 3 mps 741 mmHg 29%
19:00 +29°C° 0 mm 2 mps 741 mmHg 33%
20:00 +28°C° 0 mm 2 mps 741 mmHg 36%
21:00 +27°C° 0 mm 2 mps 741 mmHg 38%
22:00 +25°C° 0 mm 2 mps 741 mmHg 41%
23:00 +25°C° 0 mm 1 mps 741 mmHg 43%
Show more